Theta_e
335 334 332 328 328 326 324 323 323 322 327 330 333 334 332 332 332 331 331 329 327 334 332 330 332 332 333 329 326 325 317 319 315 313 311 311 312 315 316 317 317 315 314
333 334 333 329 330 329 325 321 322 324 326 330 330 330 330 329 329 329 328 330 327 323 335 334 332 331 329 317 316 316 314 313 315 317 315 311 310 310 311 312 314 315 314
332 334 333 330 331 331 328 322 321 324 327 329 329 328 328 329 325 323 328 327 319 319 331 333 330 326 313 314 314 313 314 317 317 317 315 314 314 313 311 310 310 313 315
331 334 334 332 331 332 329 325 321 322 325 326 325 326 326 328 325 322 324 324 316 319 324 322 317 311 313 314 315 315 316 316 316 316 315 315 314 314 314 314 314 315 315
331 334 335 333 332 333 331 327 323 322 324 323 323 324 323 323 323 321 321 317 317 316 318 313 311 312 314 315 317 319 322 320 317 317 316 316 316 315 315 315 315 315 315
330 334 335 335 333 333 333 329 326 322 322 323 323 322 322 322 322 321 317 316 317 317 313 312 314 318 321 323 323 322 323 325 326 325 322 319 317 317 317 316 316 316 316
329 334 335 335 335 334 333 331 327 325 322 321 322 323 322 322 321 321 318 316 317 315 313 315 320 325 327 328 326 325 327 326 328 328 324 324 321 318 317 317 317 317 317
330 333 335 335 335 334 333 332 328 326 324 322 321 322 321 321 321 321 319 316 318 315 315 316 322 328 329 329 328 327 328 328 329 330 331 331 326 321 319 318 318 318 318
331 333 334 335 335 335 334 332 330 326 325 322 322 321 322 321 320 320 320 318 317 317 315 315 320 325 327 326 326 327 329 330 330 330 331 332 333 332 328 322 319 319 319
329 330 333 334 334 335 334 332 329 328 325 324 322 321 319 319 320 319 319 320 318 317 316 315 315 315 316 318 323 326 328 330 330 332 333 335 335 334 334 332 326 322 320
323 325 330 331 332 332 331 329 328 328 326 324 323 322 320 319 318 317 318 317 318 318 318 317 316 316 316 316 316 320 325 328 328 330 334 335 335 336 336 335 333 330 328
324 323 323 324 326 327 326 325 324 324 324 324 323 322 321 319 319 318 317 317 317 317 317 317 317 317 316 316 316 316 315 316 325 327 331 335 335 335 336 336 336 334 333
331 327 326 325 325 325 325 325 324 322 321 321 321 322 321 322 321 319 318 318 318 317 317 317 317 317 317 317 317 317 317 317 317 316 326 332 335 334 335 336 336 336 335
338 334 328 328 328 328 327 327 327 334 333 328 325 325 323 322 322 322 322 321 321 320 320 320 320 321 321 322 322 318 317 317 318 317 316 321 332 333 333 334 335 336 336
340 341 334 329 329 329 329 330 336 337 336 333 331 332 332 331 331 329 330 329 327 326 327 328 329 329 328 330 331 331 328 321 318 318 318 317 321 326 327 327 331 334 335
340 342 341 337 335 335 335 335 336 337 336 337 334 334 334 334 334 334 334 335 334 332 332 333 333 333 332 332 331 331 330 331 331 329 327 323 319 318 319 325 328 327 329
340 341 342 342 340 339 339 337 338 337 335 338 337 335 334 334 333 334 333 334 333 334 335 334 333 336 336 336 335 333 332 331 330 331 332 331 331 329 327 324 323 323 326
337 339 341 342 341 341 341 340 339 340 339 337 339 337 337 338 334 333 333 332 334 335 335 333 334 333 334 334 334 335 335 335 335 334 332 330 330 331 331 331 330 328 327
333 337 338 339 339 340 339 340 339 338 338 338 337 336 337 337 337 336 336 337 336 334 334 335 336 336 334 333 333 333 335 335 334 334 334 334 332 330 327 326 327 327 327
323 330 333 335 336 335 334 334 335 334 333 334 333 334 334 333 334 334 334 335 336 336 336 336 336 337 336 336 337 336 336 335 334 333 334 332 332 333 333 331 329 326 324
311 312 320 324 327 330 329 330 329 327 320 320 319 318 320 320 321 322 323 326 328 329 330 332 333 334 334 334 334 334 333 334 334 332 333 332 333 333 333 333 332 333 331
304 304 307 310 311 312 313 315 313 311 311 308 309 309 310 311 312 313 313 314 314 315 315 316 317 319 321 322 323 325 329 329 332 332 331 331 332 332 332 331 333 332 332
303 302 302 302 302 303 304 307 305 305 304 303 303 303 303 303 303 303 303 304 305 306 308 309 310 311 312 312 311 319 316 319 319 324 325 329 330 329 330 329 329 330 330
302 302 302 301 301 301 301 301 301 301 301 299 299 299 299 299 299 299 298 299 299 299 299 299 299 300 302 303 305 307 307 308 312 316 315 317 319 322 324 324 325 327 328
301 300 300 300 299 299 299 299 299 299 298 297 298 297 297 297 297 297 297 297 297 297 297 297 297 297 297 297 298 300 300 302 307 305 307 307 306 308 312 313 318 321 325
301 300 299 299 298 298 298 297 297 297 297 297 297 297 296 296 296 296 296 296 296 297 297 297 297 297 296 296 298 298 299 298 297 300 301 301 301 299 300 303 307 312 318
Wind_Speed
24 21 18 14 11 8 9 11 12 14 16 17 16 14 14 12 10 9 8 7 7 9 12 11 8 7 7 6 7 8 9 10 11 11 11 12 12 12 11 11 11 12 11
24 23 19 16 13 10 9 11 14 16 17 18 17 16 13 11 7 6 6 6 5 7 10 9 6 7 6 8 10 11 11 11 12 12 11 11 11 10 10 9 9 10 10
25 24 21 17 14 11 10 11 12 15 17 17 16 13 10 10 9 6 7 6 5 6 9 7 6 7 9 12 14 15 14 13 13 12 12 11 10 10 10 9 9 9 8
25 24 21 18 14 11 10 12 12 13 13 13 12 12 11 9 9 9 8 7 6 7 8 8 7 9 13 15 14 14 13 12 11 10 10 8 7 7 7 7 7 7 7
25 24 21 17 15 11 9 10 12 12 12 11 10 10 9 9 8 9 9 9 8 8 8 9 11 12 13 14 13 12 11 10 9 8 8 7 6 5 4 4 4 4 4
25 24 21 17 14 11 9 9 9 10 11 10 9 7 7 8 8 8 9 10 9 9 9 10 11 12 12 11 9 7 6 7 7 6 6 6 4 4 3 2 1 1 1
25 24 21 17 14 11 9 8 8 8 8 9 9 7 6 5 7 7 7 9 10 11 10 10 11 10 9 7 6 5 5 4 5 5 3 4 4 3 3 2 3 3 3
23 22 20 17 14 11 10 8 8 8 7 6 5 5 5 5 5 5 6 6 8 9 10 11 11 10 7 5 4 2 1 2 2 2 3 4 4 3 3 3 3 5 6
19 19 19 17 14 12 10 9 8 8 7 6 5 4 3 2 3 4 5 6 7 8 9 9 9 9 8 6 5 4 4 4 4 4 4 3 4 6 6 6 5 7 7
16 16 16 16 14 13 11 9 8 6 6 5 5 4 3 2 2 2 2 2 5 7 7 7 8 8 9 10 9 9 8 8 8 8 6 5 7 9 9 9 8 8 9
17 16 16 15 14 13 11 9 8 6 4 3 3 2 2 2 1 1 2 3 3 4 6 8 8 9 10 10 11 13 13 13 12 12 12 11 12 13 13 12 11 11 11
14 14 14 14 13 12 10 8 5 4 3 2 2 1 2 2 3 3 4 4 5 5 6 7 8 10 11 12 13 14 15 17 18 17 17 15 15 15 15 15 15 15 15
8 11 11 11 11 10 8 6 4 2 1 1 1 2 3 4 5 5 6 6 7 8 8 8 9 11 12 13 14 16 17 18 19 21 22 21 20 19 19 18 18 19 19
9 9 10 9 8 7 6 4 4 7 5 2 2 3 3 4 6 7 7 8 8 9 10 11 12 12 13 14 16 18 20 21 21 21 23 26 26 26 25 24 23 23 23
10 9 9 10 8 6 5 5 7 4 1 0 2 3 3 3 3 3 4 6 8 10 12 13 14 14 15 16 17 18 19 21 23 24 25 25 29 31 31 31 30 28 27
12 12 11 11 10 9 7 8 8 8 6 4 5 5 5 5 6 6 7 8 9 11 12 14 15 16 18 20 21 21 22 22 22 22 23 26 28 31 32 33 33 34 34
12 13 14 13 12 11 10 12 12 11 10 9 9 10 11 11 12 11 11 14 15 16 17 20 20 21 23 23 23 22 23 25 27 27 27 28 28 28 29 31 34 37 38
10 12 12 13 14 13 14 13 12 13 12 11 10 10 12 11 14 15 15 19 19 21 22 22 24 26 25 27 28 29 29 29 28 29 31 33 34 33 33 33 33 34 37
10 9 10 12 12 14 12 11 8 8 9 9 4 5 6 9 10 12 14 18 19 19 23 23 25 27 30 30 32 33 34 34 33 32 33 34 34 35 37 39 39 38 38
15 12 10 9 11 9 9 7 7 5 2 2 1 1 3 4 7 8 13 17 19 20 21 20 22 24 26 28 33 36 37 37 35 36 39 39 37 35 33 34 37 40 41
18 17 14 15 13 9 10 10 8 6 8 6 7 7 6 6 7 8 9 11 11 15 15 18 19 21 21 26 30 37 38 38 38 33 33 30 29 30 31 35 38 37 37
17 17 17 18 17 15 14 13 11 11 11 11 10 9 9 8 8 9 10 11 11 12 13 15 17 18 18 19 21 23 18 27 17 20 26 30 35 35 36 37 35 37 38
15 14 15 16 16 15 13 11 11 11 11 10 10 10 11 12 12 12 13 13 13 13 15 17 18 19 19 18 16 9 11 10 35 21 29 18 19 26 31 36 35 38 41
14 12 12 13 13 14 13 11 10 11 12 14 13 13 13 14 15 16 16 16 16 16 16 16 17 18 19 20 18 18 14 14 12 18 34 37 34 34 37 38 40 40 39
14 12 12 11 12 13 12 11 11 12 13 12 10 10 11 13 14 15 17 18 19 20 19 19 18 18 19 19 19 21 23 23 9 22 28 40 43 43 43 42 41 41 40
15 13 12 11 14 13 12 13 13 13 13 11 12 14 15 16 17 18 19 19 19 20 21 22 22 21 21 19 16 19 18 21 28 22 30 32 40 48 44 45 45 41 39
Wind_Direction
165 155 145 137 128 117 110 115 120 122 123 125 127 125 124 124 122 118 119 115 127 129 136 142 129 122 107 102 109 105 103 105 103 105 110 119 126 130 129 124 119 119 121
160 156 148 138 133 124 109 105 115 120 122 123 124 122 120 117 112 112 120 133 129 139 146 146 134 126 117 115 112 110 104 100 95 91 99 111 113 118 126 130 128 126 126
162 157 149 142 139 133 124 115 114 117 121 123 122 117 112 114 115 110 113 113 115 127 153 144 132 126 120 115 110 111 106 101 98 97 94 100 112 117 121 129 130 131 127
163 158 151 146 142 139 129 124 123 126 125 122 120 115 110 108 102 104 111 109 106 124 137 134 126 120 118 114 111 109 105 101 100 98 95 95 99 109 116 123 129 133 131
164 158 153 150 146 145 131 123 127 131 132 129 123 117 108 106 105 101 105 105 109 126 130 132 129 123 120 118 114 111 102 91 90 84 84 82 80 79 87 103 117 126 142
163 159 157 155 151 152 144 130 130 135 139 137 132 123 114 104 103 106 107 112 109 120 125 132 132 129 126 123 117 105 88 81 72 71 74 71 79 85 63 59 88 127 177
161 161 161 160 157 159 158 143 133 135 139 142 142 137 123 98 99 108 109 118 126 132 135 142 140 140 134 125 109 98 93 81 51 50 59 58 41 36 43 349 327 306 280
161 162 166 166 163 168 170 162 150 141 135 137 137 131 121 115 104 95 104 114 123 138 149 156 158 160 159 163 160 136 50 13 21 30 16 16 16 5 353 315 293 285 284
161 166 171 172 172 174 177 176 164 150 143 136 134 126 113 102 102 111 127 135 145 153 160 168 179 186 193 206 219 241 268 291 305 300 316 317 317 323 326 319 311 296 285
163 172 177 179 182 183 184 183 177 165 154 151 149 153 156 149 138 120 119 151 160 164 176 187 197 208 219 228 235 250 263 271 288 292 301 315 310 301 297 297 304 299 289
164 172 180 185 189 191 192 191 186 179 172 168 171 183 193 200 220 211 201 195 208 213 205 205 215 227 237 244 249 254 262 269 274 273 279 290 300 304 293 282 283 289 292
170 174 179 185 187 188 189 190 191 190 191 200 213 253 283 277 265 257 258 252 240 235 239 247 250 249 250 254 258 263 269 269 267 268 269 275 287 295 293 277 276 281 287
181 187 183 184 185 187 187 183 166 122 32 338 325 320 321 319 309 297 292 284 276 271 267 265 267 269 270 271 270 268 268 270 270 268 266 268 274 281 283 278 275 277 282
174 181 188 189 188 191 189 175 133 99 75 50 357 322 309 311 312 311 310 301 300 291 285 284 284 282 281 283 285 280 276 274 275 274 269 262 265 271 277 278 276 273 276
186 176 171 178 188 194 191 170 163 159 145 173 232 253 277 306 324 309 310 306 304 301 305 306 301 294 289 289 287 290 289 285 281 279 276 270 263 266 270 272 274 274 275
187 184 176 167 165 171 172 191 202 221 223 238 249 259 284 282 280 281 299 304 302 294 291 292 294 297 299 299 295 292 291 290 290 288 289 283 277 272 271 272 273 273 275
181 184 188 186 189 187 193 195 200 208 235 244 242 254 261 272 272 275 285 286 291 291 292 288 290 289 289 289 292 298 303 299 292 290 290 289 285 284 283 279 277 276 275
158 184 190 201 197 205 211 210 230 242 234 235 238 245 255 256 251 258 271 273 279 277 280 281 283 285 287 289 293 292 290 292 295 297 295 290 287 285 283 282 283 282 280
120 143 172 185 186 191 172 189 196 195 210 184 254 262 280 283 278 279 281 285 284 278 281 281 278 280 288 285 283 282 284 286 290 292 291 291 293 290 288 286 284 282 281
102 116 138 160 164 162 162 176 196 174 215 179 157 209 279 291 297 297 287 283 285 282 286 287 289 288 295 295 285 281 283 284 284 285 288 292 292 293 294 295 294 290 286
98 98 110 116 126 143 148 147 132 128 96 90 72 58 46 26 7 348 344 327 309 307 320 313 307 304 306 302 302 295 295 296 296 303 301 301 300 298 299 299 299 300 298
100 96 100 102 112 116 121 115 111 106 94 78 67 53 40 27 14 5 357 351 348 343 338 335 332 325 320 320 323 323 328 313 291 290 297 297 297 297 297 296 297 297 296
94 90 95 97 96 93 89 93 99 95 91 80 56 40 28 19 15 10 7 2 356 349 343 340 336 335 334 334 352 354 340 317 310 310 300 300 296 295 290 293 297 294 294
96 88 83 83 87 89 94 99 96 82 65 54 45 35 26 19 15 12 8 3 359 358 355 355 351 344 337 336 332 328 329 318 319 316 298 301 296 288 286 289 290 292 293
98 96 93 94 92 87 84 80 76 71 66 58 48 37 30 23 18 13 9 5 360 357 356 355 351 349 345 342 336 327 326 326 309 315 311 311 307 308 310 307 303 294 290
106 97 94 97 94 86 80 76 69 65 60 51 45 36 31 24 19 15 11 6 1 357 354 352 350 348 346 344 337 332 335 333 322 318 309 307 307 309 308 307 306 303 292